User: anonymous   Login
Location: London
(51.5074°N, 0.1278°W)
Time: 00:16:44
(UTC+01:00)
Language:

DELFI C3 - Orbit

View from above orbital plane
View from above orbital plane
View from above satellite
View from above satellite

Ground track
Ground track

The orbit data is extracted from the following two-line orbital elements,

1 32789U 08021G   20275.18167868 +.00002014 +00000-0 +13484-3 0  9991
2 32789 097.4095 314.2473 0010732 318.9474 041.0946 15.07965102677749
Epoch (UTC): 01 October 2020 04:21:37
Eccentricity: 0.0010732
inclination: 97.4095°
perigee height: 535 km
apogee height: 550 km
right ascension of ascending node: 314.2473°
argument of perigee: 318.9474°
revolutions per day: 15.07965102
mean anomaly at epoch: 41.0946°
orbit number at epoch: 67774

The dashed part of the orbit path shows where the satellite is in the earth's shadow,  

DLR